Le nostre stazioni meteo in Italia

Pubblicità
Il mio iltempo24.it
Vignola, Italia (16137): Temperatura & dewpoint: 14.01.2019 07:00:00 - 20.01.2019 07:00:00 (CET)Vignola, Italia (16137): reduced air pressure: 14.01.2019 07:00:00 - 20.01.2019 07:00:00 (CET)Vignola, Italia (16137): precipitazioni: 14.01.2019 07:00:00 - 20.01.2019 07:00:00 (CET)
Data & Tempo tt [°C] td [°C] ppp [hPa] rr [mm]
20.01.2019 07:00:00 - - - -
20.01.2019 06:00:00 2,4 0,5 1015,0 -
20.01.2019 05:00:00 2,4 0,6 1015,0 0,0
20.01.2019 04:00:00 2,4 0,5 1015,3 0,0
20.01.2019 03:00:00 2,5 0,4 1015,7 0,0
20.01.2019 02:00:00 2,5 0,4 1015,8 0,0
20.01.2019 01:00:00 2,5 0,4 1015,9 0,0
20.01.2019 00:00:00 - - - -
19.01.2019 23:00:00 2,6 0,5 1016,5 -
19.01.2019 22:00:00 2,5 0,6 1016,5 0,0
19.01.2019 21:00:00 2,3 0,2 1016,3 0,0
19.01.2019 20:00:00 2,0 -0,1 1016,2 0,0
19.01.2019 19:00:00 2,5 -0,1 1016,2 0,0
19.01.2019 18:00:00 3,2 -0,1 1016,0 0,0
19.01.2019 17:00:00 4,0 -0,2 1016,1 0,0
19.01.2019 16:00:00 4,2 -0,6 1016,2 0,0
19.01.2019 15:00:00 4,2 -0,4 1016,5 0,0
19.01.2019 14:00:00 4,2 -0,6 1016,7 0,0
19.01.2019 13:00:00 4,0 -1,0 1017,3 0,0
19.01.2019 12:00:00 3,8 -0,6 1017,9 0,0
19.01.2019 11:00:00 2,9 1,0 1018,5 0,0
19.01.2019 10:00:00 2,2 0,4 1018,2 0,0
19.01.2019 09:00:00 1,9 0,3 1017,8 0,4
19.01.2019 08:00:00 2,1 0,5 1017,5 0,2
19.01.2019 07:00:00 2,2 0,4 1017,3 0,6
19.01.2019 06:00:00 2,5 0,7 1017,2 0,6
19.01.2019 05:00:00 3,3 1,7 1017,1 0,2
19.01.2019 04:00:00 3,4 1,6 1017,0 0,4
19.01.2019 03:00:00 3,8 2,2 1017,1 0,4
19.01.2019 02:00:00 3,8 2,3 1016,6 0,2
19.01.2019 01:00:00 4,0 2,5 1016,7 0,2
19.01.2019 00:00:00 4,3 2,6 1016,9 0,0
18.01.2019 23:00:00 - - - -
18.01.2019 22:00:00 5,0 2,5 1016,2 0,0
18.01.2019 21:00:00 5,1 2,6 1015,8 0,0
18.01.2019 20:00:00 5,3 3,0 1015,5 0,0
18.01.2019 19:00:00 5,6 3,4 1015,4 0,0
18.01.2019 18:00:00 6,0 4,3 1015,0 0,2
18.01.2019 17:00:00 6,6 3,6 1014,6 0,0
18.01.2019 16:00:00 6,9 3,0 1014,2 0,0
18.01.2019 15:00:00 7,6 3,1 1013,5 0,0
18.01.2019 14:00:00 7,5 3,5 1013,1 0,0
18.01.2019 13:00:00 7,6 3,5 1012,8 0,0
18.01.2019 12:00:00 6,7 3,5 1012,9 0,0
18.01.2019 11:00:00 5,9 3,2 1012,9 0,0
18.01.2019 10:00:00 6,0 4,0 1012,2 0,0
18.01.2019 09:00:00 3,0 1,5 1011,5 0,0
18.01.2019 08:00:00 3,9 2,4 1010,7 0,0
18.01.2019 07:00:00 3,8 2,3 1010,6 0,0
18.01.2019 06:00:00 4,4 2,7 1009,8 0,0
18.01.2019 05:00:00 4,7 3,0 1010,1 0,8
18.01.2019 04:00:00 4,5 2,8 1010,5 0,2
18.01.2019 03:00:00 4,5 2,5 1010,5 0,4
18.01.2019 02:00:00 4,7 2,4 1010,6 0,0
18.01.2019 01:00:00 4,5 2,4 1010,6 0,0
18.01.2019 00:00:00 4,5 1,7 1010,6 0,0
17.01.2019 23:00:00 4,0 1,4 1011,1 0,0
17.01.2019 22:00:00 4,6 1,4 1011,2 0,0
17.01.2019 21:00:00 3,8 1,0 1011,5 0,0
17.01.2019 20:00:00 3,3 0,4 1011,6 0,0
17.01.2019 19:00:00 3,2 0,1 1011,8 0,0
17.01.2019 18:00:00 4,6 0,2 1011,8 0,0
17.01.2019 17:00:00 8,1 1,5 1012,0 0,0
17.01.2019 16:00:00 9,6 2,0 1012,2 0,0
17.01.2019 15:00:00 10,9 2,0 1012,2 0,0
17.01.2019 14:00:00 11,9 2,6 1012,4 0,0
17.01.2019 13:00:00 11,6 2,6 1013,2 0,0
17.01.2019 12:00:00 11,5 2,8 1013,9 0,0
17.01.2019 11:00:00 10,7 2,5 1015,1 0,0
17.01.2019 10:00:00 9,0 2,8 1015,1 -
17.01.2019 09:00:00 4,1 0,4 1015,2 0,0
17.01.2019 08:00:00 4,0 0,3 1015,3 0,0
17.01.2019 07:00:00 3,1 -0,5 1015,8 0,0
17.01.2019 06:00:00 3,8 -0,6 1015,9 -
17.01.2019 05:00:00 4,6 0,2 1016,2 0,0
17.01.2019 04:00:00 7,1 -0,1 1016,3 0,0
17.01.2019 03:00:00 6,8 -0,4 1017,2 0,0
17.01.2019 02:00:00 6,3 -0,4 1017,4 0,0
17.01.2019 01:00:00 5,4 -0,7 1018,0 0,0
17.01.2019 00:00:00 3,6 -1,0 1018,7 0,0
16.01.2019 23:00:00 1,9 -2,1 1018,9 0,0
16.01.2019 22:00:00 2,1 -1,5 1019,2 0,0
16.01.2019 21:00:00 2,5 -1,5 1018,8 0,0
16.01.2019 20:00:00 3,0 -1,2 1018,9 0,0
16.01.2019 19:00:00 4,1 -1,3 1019,0 -
16.01.2019 18:00:00 5,7 -0,8 1018,9 0,0
16.01.2019 17:00:00 10,1 -0,1 1018,6 0,0
16.01.2019 16:00:00 12,7 0,1 1018,3 0,0
16.01.2019 15:00:00 13,7 0,0 1018,4 0,0
16.01.2019 14:00:00 13,7 0,0 1018,6 -
16.01.2019 13:00:00 13,4 -0,6 1019,3 0,0
16.01.2019 12:00:00 12,7 -1,3 1019,9 0,0
16.01.2019 11:00:00 11,9 -2,3 1020,5 0,0
16.01.2019 10:00:00 8,1 -4,7 1020,6 0,0
16.01.2019 09:00:00 4,3 -6,0 1020,3 0,0
16.01.2019 08:00:00 2,3 -6,8 1020,1 -
16.01.2019 07:00:00 2,3 -7,1 1020,0 0,0
16.01.2019 06:00:00 2,0 -7,3 1019,9 0,0
16.01.2019 05:00:00 0,9 -7,6 1020,3 0,0
16.01.2019 04:00:00 1,6 -7,7 1020,4 0,0
16.01.2019 03:00:00 1,6 -7,7 1020,7 -
16.01.2019 02:00:00 2,6 -7,6 1020,4 0,0
16.01.2019 01:00:00 2,7 -7,5 1020,3 0,0
16.01.2019 00:00:00 4,7 -8,1 1020,1 0,0
15.01.2019 23:00:00 5,9 -7,7 1020,0 0,0
15.01.2019 22:00:00 5,6 -7,3 1020,2 0,0
15.01.2019 21:00:00 3,1 -6,6 1020,2 0,0
15.01.2019 20:00:00 1,6 -6,5 1019,9 0,0
15.01.2019 19:00:00 2,4 -6,5 1019,3 0,0
15.01.2019 18:00:00 4,2 -6,4 1018,8 0,0
15.01.2019 17:00:00 9,0 -7,2 1018,4 0,0
15.01.2019 16:00:00 12,6 -8,0 1017,9 0,0
15.01.2019 15:00:00 13,2 -7,5 1017,8 0,0
15.01.2019 14:00:00 13,5 -7,8 1017,9 0,0
15.01.2019 13:00:00 12,5 -8,1 1018,2 0,0
15.01.2019 12:00:00 12,1 -7,9 1018,8 0,0
15.01.2019 11:00:00 12,4 -7,1 1018,8 0,0
15.01.2019 10:00:00 9,6 -6,3 1018,3 0,0
15.01.2019 09:00:00 6,4 -6,9 1017,7 0,0
15.01.2019 08:00:00 2,3 -7,3 1017,3 0,0
15.01.2019 07:00:00 3,4 -7,4 1016,6 0,0
15.01.2019 06:00:00 2,6 -7,3 1015,9 0,0
15.01.2019 05:00:00 2,3 -7,3 1015,6 0,0
15.01.2019 04:00:00 0,7 -7,3 1015,2 0,0
15.01.2019 03:00:00 4,0 -7,5 1015,3 0,0
15.01.2019 02:00:00 6,0 -7,6 1014,5 0,0
15.01.2019 01:00:00 7,7 -7,6 1013,7 0,0
15.01.2019 00:00:00 8,8 -7,8 1013,0 0,0
14.01.2019 23:00:00 9,9 -7,8 1011,3 0,0
14.01.2019 22:00:00 9,8 -8,3 1010,3 0,0
14.01.2019 21:00:00 10,1 -8,6 1009,5 0,0
14.01.2019 20:00:00 10,6 -9,2 1008,7 0,0
14.01.2019 19:00:00 11,3 -8,6 1007,4 0,0
14.01.2019 18:00:00 12,0 -8,0 1006,7 0,0
14.01.2019 17:00:00 12,7 -6,8 1005,9 0,0
14.01.2019 16:00:00 14,7 -4,6 1004,8 0,0
14.01.2019 15:00:00 15,2 -4,2 1004,5 0,0
14.01.2019 14:00:00 15,2 -1,4 1004,4 0,0
14.01.2019 13:00:00 - - - -
14.01.2019 12:00:00 11,9 1,5 1004,8 0,0
14.01.2019 11:00:00 9,7 1,3 1005,3 0,0
14.01.2019 10:00:00 4,2 0,0 1005,7 -
14.01.2019 09:00:00 1,2 -1,2 1004,7 0,0
14.01.2019 08:00:00 0,2 -2,3 1002,5 0,0
14.01.2019 07:00:00 -0,2 -2,7 1000,4 0,0

tt = Temperatura
td = dewpoint
ppp = reduced air pressure
rr = precipitazioni

Stazioni seguenti

WeatherPro
AMSI
MeteoEarth